This is the latest recevied weather packets stored in our database for station/object K5OLV. If no packets are shown the sender has not sent any weather packets the latest 10 day(s).
| Time | Temp. | Humidity | Pressure | Rain* | Wind** | Luminosity | Snow |
|---|---|---|---|---|---|---|---|
| 1777822472 | 12.22° C | 61% | 1019 hPa | 0 mm | - | 688 W/m² | - |
| 1777822170 | 11.11° C | 66% | 1019.1 hPa | 0 mm | - | 691 W/m² | - |
| 1777821867 | 11.11° C | 67% | 1019.1 hPa | 0 mm | - | 722 W/m² | - |
| 1777821564 | 11.11° C | 70% | 1019.2 hPa | 0 mm | - | 786 W/m² | - |
| 1777821262 | 10.56° C | 69% | 1019.1 hPa | 0 mm | - | 791 W/m² | - |
| 1777820959 | 10.56° C | 70% | 1019 hPa | 0 mm | - | 747 W/m² | - |
| 1777820655 | 10.56° C | 76% | 1018.8 hPa | 0 mm | - | 698 W/m² | - |
| 1777820351 | 10.56° C | 73% | 1018.9 hPa | 0 mm | - | 525 W/m² | - |
| 1777820049 | 10.56° C | 74% | 1018.9 hPa | 0 mm | - | 679 W/m² | - |
| 1777819745 | 10° C | 75% | 1018.8 hPa | 0 mm | - | 668 W/m² | - |
| 1777819444 | 10° C | 74% | 1019.1 hPa | 0 mm | - | 648 W/m² | - |
| 1777819142 | 10° C | 75% | 1019 hPa | 0 mm | - | 686 W/m² | - |
| 1777818838 | 10° C | 78% | 1019 hPa | 0 mm | - | 635 W/m² | - |
| 1777818534 | 10° C | 79% | 1018.9 hPa | 0 mm | - | 625 W/m² | - |
| 1777818232 | 9.44° C | 79% | 1018.9 hPa | 0 mm | - | 658 W/m² | - |
| 1777817927 | 9.44° C | 82% | 1018.9 hPa | 0 mm | - | 638 W/m² | - |
| 1777817625 | 9.44° C | 82% | 1018.9 hPa | 0 mm | - | 606 W/m² | - |
| 1777817322 | 8.89° C | 84% | 1018.7 hPa | 0 mm | - | 565 W/m² | - |
| 1777817019 | 8.89° C | 85% | 1018.9 hPa | 0 mm | - | 548 W/m² | - |
| 1777816714 | 8.33° C | 85% | 1018.9 hPa | 0 mm | - | 528 W/m² | - |
| 1777816412 | 8.33° C | 87% | 1019 hPa | 0 mm | - | 496 W/m² | - |
| 1777816110 | 7.78° C | 88% | 1018.9 hPa | 0 mm | - | 471 W/m² | - |
| 1777815807 | 7.78° C | 89% | 1018.8 hPa | 0 mm | - | 439 W/m² | - |
| 1777815505 | 7.78° C | 89% | 1018.7 hPa | 0 mm | - | 395 W/m² | - |
| 1777815202 | 7.78° C | 89% | 1018.7 hPa | 0 mm | - | 386 W/m² | - |
* Rain latest hour (hover to see other rain measurements)
** Current wind speed in m/s (hover to see current wind gust speed)